User: anonymous   Login
Location: Caltech
(34.1382°N, 118.1253°W)
Time: 00:25:25
(UTC-07:00)
Language:

Cosmos 1980 Rocket - Orbit

View from above orbital plane
View from above orbital plane
View from above satellite
View from above satellite

Ground track
Ground track

The orbit data is extracted from the following two-line orbital elements,

1 19650U 88102B   15145.18480479 -.00000273  00000-0 -11474-3 0  9991
2 19650 070.9979 160.4977 0016510 252.8009 107.1307 14.15719159369276
Epoch (UTC): 25 May 2015 04:26:07
Eccentricity: 0.0016510
inclination: 70.9979°
perigee height: 828 km
apogee height: 852 km
right ascension of ascending node: 160.4977°
argument of perigee: 252.8009°
revolutions per day: 14.15719159
mean anomaly at epoch: 107.1307°
orbit number at epoch: 36927

The dashed part of the orbit path shows where the satellite is in the earth's shadow,  

DLR